Marysville, OH

2:03 AM EST on December 04, 2016 (GMT -0500)
Marysville

Weather History for KMRT - January, 2014

Change the Weather History Date:

Saturday, January 11, 2014

  Actual Average (KDLZ) Record (KDLZ)
Temperature  
Mean Temperature 40 °F -  
Max Temperature 48 °F 30 °F 58 °F (1975)
Min Temperature 33 °F 13 °F -11 °F (1982)
Degree Days  
Heating Degree Days 24    
Moisture  
Dew Point 38 °F    
Average Humidity 89    
Maximum Humidity 96    
Minimum Humidity 75    
Precipitation  
Precipitation 0.10 in - - ()
Sea Level Pressure  
Sea Level Pressure 29.58 in    
Wind  
Wind Speed 14 mph (WSW)    
Max Wind Speed 25 mph    
Max Gust Speed 37 mph    
Visibility 8 miles    
Events      
Averages and records for this station are not official NWS values.
T = Trace of Precipitation, MM = Missing Value Source: NWS Daily Summary

Daily Weather History Graph

Daily Weather History Graph

Search for Another Location

Airport or City:

Trip Planner

Search our weather history database for the weather conditions in past years. The results will help you decide how hot, cold, wet, or windy it might be!

Date:

Astronomy

Jan. 11, 2014 Rise Set
Actual Time 7:55 AM EST 5:27 PM EST
Civil Twilight 7:25 AM EST 5:57 PM EST
Nautical Twilight 6:51 AM EST 6:31 PM EST
Astronomical Twilight 6:18 AM EST 7:04 PM EST
Moon 2:11 PM EST (1/11) 3:59 AM EST (1/11)
Length of Visible Light 10h 32m
Length of Day
9h 32m
Waxing Gibbous, 83% of the Moon is Illuminated
Jan 11
Waxing Gibbous
Jan 15
Full
Jan 24
Last Quarter
Jan 30
New
Feb 6
First Quarter

Hourly Weather History & Observations

Time (EST) Temp. Windchill Dew Point Humidity Pressure Visibility Wind Dir Wind Speed Gust Speed Precip Events Conditions
12:15 AM 44.2 °F 39.2 °F 42.6 °F 94% 29.71 in 10.0 mi South 9.2 mph 18.4 mph N/A   Overcast
12:34 AM 44.1 °F 38.1 °F 42.3 °F 93% 29.73 in 10.0 mi South 11.5 mph - N/A   Overcast
12:54 AM 44.1 °F 39.0 °F 42.3 °F 93% 29.73 in 7.0 mi SSW 9.2 mph - N/A   Overcast
1:14 AM 43.5 °F 37.5 °F 41.7 °F 93% 29.70 in 7.0 mi South 11.5 mph - N/A   Overcast
1:34 AM 44.1 °F 37.7 °F 42.4 °F 94% 29.69 in 7.0 mi South 12.7 mph - N/A   Overcast
1:54 AM 44.2 °F 38.0 °F 42.4 °F 93% 29.68 in 4.0 mi South 12.7 mph - N/A   Overcast
2:14 AM 44.2 °F 38.4 °F 42.6 °F 94% 29.67 in 4.0 mi South 11.5 mph - 0.01 in   Overcast
2:34 AM 44.6 °F 38.8 °F 42.8 °F 93% 29.67 in 5.0 mi South 11.5 mph - 0.02 in   Overcast
2:54 AM 44.8 °F 41.6 °F 43.2 °F 94% 29.66 in 5.0 mi West 5.8 mph 18.4 mph 0.04 in   Overcast
3:14 AM 45.3 °F 40.1 °F 43.7 °F 94% 29.64 in 10.0 mi SSW 10.4 mph - N/A   Overcast
3:35 AM 45.1 °F 39.5 °F 43.7 °F 95% 29.62 in 7.0 mi SSW 11.5 mph 16.1 mph N/A   Overcast
3:54 AM 45.5 °F 39.2 °F 43.9 °F 94% 29.61 in 7.0 mi South 13.8 mph - N/A   Overcast
4:14 AM 45.3 °F 38.7 °F 43.9 °F 95% 29.60 in 4.0 mi South 15.0 mph - 0.02 in   Overcast
4:35 AM 46.0 °F 39.6 °F 44.6 °F 95% 29.58 in 4.0 mi South 15.0 mph - 0.03 in   Overcast
4:54 AM 46.4 °F 40.7 °F 45.0 °F 95% 29.57 in 5.0 mi SSW 12.7 mph - 0.04 in   Overcast
5:14 AM 45.9 °F 40.4 °F 44.6 °F 95% 29.58 in 5.0 mi SW 11.5 mph - N/A   Overcast
5:34 AM 45.7 °F 41.5 °F 44.2 °F 95% 29.57 in 5.0 mi SSW 8.1 mph - 0.01 in   Overcast
5:54 AM 45.5 °F 39.9 °F 43.9 °F 94% 29.56 in 5.0 mi SSW 11.5 mph - 0.02 in   Overcast
6:14 AM 45.0 °F 39.3 °F 43.7 °F 95% 29.56 in 7.0 mi SSW 11.5 mph - N/A   Overcast
6:35 AM 45.1 °F 39.9 °F 43.9 °F 95% 29.54 in 10.0 mi SSW 10.4 mph - N/A   Overcast
6:54 AM 45.0 °F 39.3 °F 43.9 °F 96% 29.53 in 10.0 mi SSW 11.5 mph - N/A   Overcast
7:14 AM 45.0 °F 38.5 °F 43.7 °F 95% 29.50 in 7.0 mi South 13.8 mph - N/A   Overcast
7:35 AM 45.7 °F 39.1 °F 44.6 °F 96% 29.48 in 7.0 mi South 15.0 mph 19.6 mph N/A   Overcast
7:54 AM 45.9 °F 40.4 °F 44.6 °F 95% 29.49 in 4.0 mi SSW 11.5 mph - N/A   Overcast
8:14 AM 45.5 °F 39.9 °F 44.2 °F 95% 29.49 in 0.8 mi SSW 11.5 mph - N/A   Overcast
8:35 AM 45.3 °F 40.1 °F 43.9 °F 95% 29.49 in 0.2 mi SSW 10.4 mph - N/A   Overcast
8:54 AM 45.1 °F 40.3 °F 43.9 °F 95% 29.49 in 0.2 mi SSW 9.2 mph - N/A   Overcast
9:14 AM 45.7 °F 40.6 °F 44.4 °F 95% 29.48 in 1.0 mi SSW 10.4 mph - N/A   Overcast
9:34 AM 45.9 °F 40.4 °F 44.6 °F 95% 29.46 in 1.2 mi SSW 11.5 mph 16.1 mph N/A   Overcast
9:55 AM 45.9 °F 40.8 °F 44.6 °F 95% 29.45 in 0.5 mi SSW 10.4 mph 17.3 mph N/A   Overcast
10:14 AM 45.5 °F 40.8 °F 44.2 °F 95% 29.46 in 0.8 mi SSW 9.2 mph - N/A   Overcast
10:34 AM 45.9 °F 40.0 °F 44.6 °F 95% 29.48 in 1.8 mi SSW 12.7 mph - N/A   Overcast
10:55 AM 46.4 °F 40.4 °F 45.1 °F 95% 29.47 in 3.0 mi SW 13.8 mph - N/A   Overcast
11:14 AM 46.6 °F - 45.3 °F 95% 29.46 in 7.0 mi SW 12.7 mph - N/A   Overcast
11:34 AM 48.2 °F - 46.8 °F 95% 29.45 in 10.0 mi WSW 17.3 mph - N/A   Overcast
11:54 AM 46.8 °F - 45.7 °F 96% 29.44 in 10.0 mi West 20.7 mph 26.5 mph N/A   Overcast
12:14 PM 45.5 °F 37.6 °F 44.1 °F 95% 29.46 in 10.0 mi West 20.7 mph 28.8 mph N/A   Overcast
12:34 PM 45.7 °F 38.3 °F 43.3 °F 92% 29.45 in 10.0 mi West 18.4 mph 24.2 mph N/A   Overcast
12:54 PM 44.6 °F 35.7 °F 41.5 °F 89% 29.45 in 10.0 mi West 24.2 mph 32.2 mph N/A   Overcast
1:14 PM 42.6 °F 32.8 °F 37.8 °F 83% 29.46 in 10.0 mi West 25.3 mph 33.4 mph N/A   Overcast
1:34 PM 41.9 °F 33.4 °F 37.6 °F 85% 29.46 in 7.0 mi West 18.4 mph 34.5 mph N/A   Overcast
1:54 PM 43.5 °F 35.2 °F 38.3 °F 82% 29.45 in 10.0 mi West 19.6 mph 27.6 mph N/A   Overcast
2:14 PM 44.2 °F 35.4 °F 36.7 °F 75% 29.46 in 10.0 mi West 23.0 mph 29.9 mph N/A   Overcast
2:34 PM 42.4 °F 33.1 °F 35.4 °F 76% 29.47 in 10.0 mi West 23.0 mph 31.1 mph N/A   Overcast
2:54 PM 41.5 °F 32.9 °F 34.9 °F 77% 29.48 in 10.0 mi West 18.4 mph 29.9 mph N/A   Overcast
3:14 PM 39.2 °F 29.3 °F 34.7 °F 84% 29.50 in 5.0 mi West 20.7 mph 28.8 mph N/A   Overcast
3:34 PM 38.8 °F 28.5 °F 34.0 °F 83% 29.51 in 10.0 mi West 21.9 mph 33.4 mph N/A   Overcast
3:54 PM 39.0 °F 28.8 °F 33.1 °F 79% 29.52 in 10.0 mi West 21.9 mph 26.5 mph N/A   Overcast
4:14 PM 38.5 °F 28.1 °F 32.9 °F 80% 29.53 in 10.0 mi West 21.9 mph 27.6 mph N/A   Overcast
4:34 PM 37.9 °F 28.5 °F 32.5 °F 81% 29.54 in 10.0 mi West 17.3 mph 23.0 mph N/A   Overcast
4:54 PM 37.0 °F 27.0 °F 32.0 °F 82% 29.56 in 10.0 mi West 18.4 mph 26.5 mph N/A   Overcast
5:14 PM 36.5 °F 25.4 °F 32.0 °F 84% 29.57 in 10.0 mi West 21.9 mph 27.6 mph N/A   Overcast
5:34 PM 35.8 °F 25.4 °F 32.0 °F 86% 29.58 in 10.0 mi West 18.4 mph 25.3 mph N/A   Overcast
5:55 PM 35.1 °F 25.2 °F 31.8 °F 88% 29.60 in 10.0 mi West 16.1 mph - N/A   Overcast
6:14 PM 35.1 °F 24.1 °F 31.6 °F 87% 29.60 in 10.0 mi West 19.6 mph 24.2 mph N/A   Overcast
6:34 PM 34.9 °F 24.2 °F 31.6 °F 88% 29.62 in 10.0 mi West 18.4 mph 23.0 mph N/A   Overcast
6:55 PM 34.7 °F 24.3 °F 31.3 °F 87% 29.63 in 10.0 mi West 17.3 mph 24.2 mph N/A   Overcast
7:14 PM 34.3 °F 25.0 °F 31.1 °F 88% 29.64 in 7.0 mi West 13.8 mph 21.9 mph N/A   Overcast
7:34 PM 34.3 °F 24.6 °F 30.2 °F 85% 29.65 in 10.0 mi WNW 15.0 mph 24.2 mph N/A   Overcast
7:55 PM 34.2 °F 24.0 °F 30.6 °F 87% 29.65 in 10.0 mi West 16.1 mph 26.5 mph N/A   Overcast
8:14 PM 34.2 °F 21.8 °F 30.2 °F 85% 29.67 in 10.0 mi West 24.2 mph 29.9 mph N/A   Overcast
8:34 PM 34.3 °F 25.0 °F 29.3 °F 82% 29.68 in 10.0 mi West 13.8 mph 36.8 mph N/A   Overcast
8:55 PM 34.0 °F 23.0 °F 29.3 °F 83% 29.70 in 10.0 mi West 18.4 mph 23.0 mph N/A   Overcast
9:14 PM 33.8 °F 23.5 °F 28.9 °F 82% 29.70 in 10.0 mi West 16.1 mph 25.3 mph N/A   Overcast
9:34 PM 33.8 °F 22.8 °F 28.4 °F 81% 29.71 in 10.0 mi West 18.4 mph 26.5 mph N/A   Overcast
9:55 PM 33.8 °F 22.8 °F 28.0 °F 79% 29.72 in 10.0 mi West 18.4 mph 29.9 mph N/A   Overcast
10:14 PM 33.8 °F 22.5 °F 28.0 °F 79% 29.73 in 10.0 mi West 19.6 mph 32.2 mph N/A   Overcast
10:34 PM 33.8 °F 23.9 °F 28.2 °F 80% 29.73 in 10.0 mi West 15.0 mph 21.9 mph N/A   Overcast
10:55 PM 33.8 °F 24.8 °F 28.4 °F 81% 29.73 in 10.0 mi West 12.7 mph - N/A   Overcast
11:14 PM 33.8 °F 24.8 °F 28.8 °F 82% 29.74 in 10.0 mi West 12.7 mph 17.3 mph N/A   Overcast
11:34 PM 33.8 °F 24.3 °F 29.1 °F 83% 29.74 in 10.0 mi West 13.8 mph - N/A   Overcast
11:55 PM 34.0 °F 25.5 °F 29.3 °F 83% 29.75 in 10.0 mi WSW 11.5 mph - N/A   Overcast